User: anonymous   Login
Location: *
(33.8649°S, 62.1526°E)
Time: 13:02:09
(UTC+00:00)
Language:

Thor Agena Rocket - Orbit

View from above orbital plane
View from above orbital plane
View from above satellite
View from above satellite

Ground track
Ground track

The orbit data is extracted from the following two-line orbital elements,

1 00733U 64002A   21104.32274854  .00000012  00000-0  21699-4 0  9992
2 00733  98.9878  13.1061 0034835  75.1979 285.3059 14.32433919981893
Epoch (UTC): 14 April 2021 07:44:45
Eccentricity: 0.0034835
inclination: 98.9878°
perigee height: 758 km
apogee height: 808 km
right ascension of ascending node: 13.1061°
argument of perigee: 75.1979°
revolutions per day: 14.32433919
mean anomaly at epoch: 285.3059°
orbit number at epoch: 98189

The dashed part of the orbit path shows where the satellite is in the earth's shadow,  

DLR